Weather History for RJFM - July, 2013

Change the Weather History Date:

Friday, July 5, 2013

  Actual Average Record
Temperature  
Mean Temperature 88 °F -  
Max Temperature 93 °F 85 °F 95 °F (1998)
Min Temperature 82 °F 74 °F 66 °F (2015)
Cooling Degree Days 22    
Growing Degree Days 38 (Base 50)    
Moisture  
Dew Point 72 °F    
Average Humidity 57    
Maximum Humidity 74    
Minimum Humidity 49    
Precipitation  
Precipitation 0.00 in - - ()
Sea Level Pressure  
Sea Level Pressure 29.70 in    
Wind  
Wind Speed 13 mph ()    
Max Wind Speed 23 mph    
Max Gust Speed 32 mph    
Visibility 6.2 miles    
Events      
Averages and records for this station are not official NWS values.
T = Trace of Precipitation, MM = Missing Value Source: Averaged Metar Reports

Daily Weather History Graph

Daily Weather History Graph

Search for Another Location

Airport or City:

Trip Planner

Search our weather history database for the weather conditions in past years. The results will help you decide how hot, cold, wet, or windy it might be!

Date:

Astronomy

Jul. 05, 2013 Rise Set
Actual Time 5:13 AM JST 7:23 PM JST
Civil Twilight 4:45 AM JST 7:51 PM JST
Nautical Twilight 4:11 AM JST 8:25 PM JST
Astronomical Twilight 3:34 AM JST 9:02 PM JST
Moon 2:42 AM JST (7/5) 4:51 PM JST (7/5)
Length of Visible Light 15h 06m
Length of Day
14h 10m
Waning Crescent, 9% of the Moon is Illuminated
Jul 5
Waning Crescent
Jul 8
New
Jul 16
First Quarter
Jul 23
Full
Jul 30
Last Quarter

Hourly Weather History & Observations

Time (JST) Temp. Heat Index Dew Point Humidity Pressure Visibility Wind Dir Wind Speed Gust Speed Precip Events Conditions
6:10 AM 82.4 °F 88.2 °F 73.4 °F 74% 29.71 in 6.2 mi West 13.8 mph - N/A   Scattered Clouds
7:00 AM 84.2 °F 90.9 °F 73.4 °F 70% 29.71 in 6.2 mi West 11.5 mph - N/A   Scattered Clouds
8:00 AM 86.0 °F 93.4 °F 73.4 °F 66% 29.71 in 6.2 mi West 11.5 mph - N/A   Mostly Cloudy
8:02 AM 86.0 °F 93.4 °F 73.4 °F 66% 29.71 in 6.2 mi SSW 10.4 mph - N/A   Mostly Cloudy
8:41 AM 87.8 °F 95.6 °F 73.4 °F 62% 29.71 in 6.2 mi West 11.5 mph - N/A   Scattered Clouds
9:00 AM 89.6 °F 99.8 °F 75.2 °F 62% 29.68 in 6.2 mi WSW 16.1 mph - N/A   Partly Cloudy
9:11 AM 89.6 °F 98.2 °F 73.4 °F 59% 29.68 in 6.2 mi West 18.4 mph 29.9 mph N/A   Partly Cloudy
10:00 AM 89.6 °F 96.2 °F 71.6 °F 55% 29.68 in 6.2 mi SSW 12.7 mph - N/A   Scattered Clouds
10:34 AM 91.4 °F 98.4 °F 71.6 °F 52% 29.68 in 6.2 mi West 17.3 mph - N/A   Scattered Clouds
11:00 AM 91.4 °F 98.4 °F 71.6 °F 52% 29.68 in 6.2 mi West 18.4 mph - N/A   Mostly Cloudy
12:00 PM 93.2 °F 100.5 °F 71.6 °F 49% 29.68 in 6.2 mi West 17.3 mph - N/A   Scattered Clouds
12:17 PM 93.2 °F 100.5 °F 71.6 °F 49% 29.68 in 6.2 mi WSW 17.3 mph 31.1 mph N/A   Scattered Clouds
1:00 PM 93.2 °F 100.5 °F 71.6 °F 49% 29.68 in 6.2 mi West 23.0 mph - N/A   Scattered Clouds
1:06 PM 93.2 °F 100.5 °F 71.6 °F 49% 29.68 in 6.2 mi WSW 20.7 mph 32.2 mph N/A   Scattered Clouds
2:00 PM 93.2 °F 102.4 °F 73.4 °F 52% 29.68 in 6.2 mi West 17.3 mph - N/A   Scattered Clouds
2:22 PM 93.2 °F 100.5 °F 71.6 °F 49% 29.68 in 6.2 mi WSW 17.3 mph 28.8 mph N/A   Scattered Clouds
3:00 PM 93.2 °F 100.5 °F 71.6 °F 49% 29.71 in 6.2 mi WSW 20.7 mph - N/A   Partly Cloudy
3:09 PM 93.2 °F 100.5 °F 71.6 °F 49% 29.68 in 6.2 mi WSW 19.6 mph 31.1 mph N/A   Partly Cloudy
4:00 PM 93.2 °F 100.5 °F 71.6 °F 49% 29.68 in 6.2 mi WSW 19.6 mph - N/A   Scattered Clouds
4:11 PM 91.4 °F 100.1 °F 73.4 °F 55% 29.68 in 6.2 mi WSW 18.4 mph 29.9 mph N/A   Scattered Clouds
5:00 PM 91.4 °F 98.4 °F 71.6 °F 52% 29.71 in 6.2 mi West 17.3 mph - N/A   Scattered Clouds
6:00 PM 89.6 °F 96.2 °F 71.6 °F 55% 29.71 in 6.2 mi WSW 10.4 mph - N/A   Scattered Clouds
7:00 PM 86.0 °F 93.4 °F 73.4 °F 66% 29.71 in 6.2 mi SSW 5.8 mph - N/A   Scattered Clouds
8:00 PM 84.2 °F 90.9 °F 73.4 °F 70% 29.74 in 6.2 mi South 9.2 mph - N/A   Scattered Clouds
9:00 PM 84.2 °F 89.6 °F 71.6 °F 66% 29.74 in 6.2 mi South 9.2 mph - N/A   Partly Cloudy